Latest Coastal Weather Observations for Truscott

IDW60701

Issued at 10:02 pm WST Tuesday 4 August 2015 (issued every 10 minutes, with the page automatically refreshed every 10 minutes)

About coastal observations | Map of coastal stations | Coastal observations for WA | Marine services | Other Formats
Station Details ID: 001020 Name: TRUSCOTT Lat: -14.09 Lon: 126.39 Height: 51.0 m
Data from the previous 72 hours. | See also: Recent months at Truscott
Date/Time
WST
Temp

°C
Wind Pressure Rain
since 9am
mm
Weather Cloud Vis
km
Sea
Height
m
Swell
Dir
 
Speed
knots
Gust
knots
hPa Trend Height
m
Period
s
Dir
04/10:00pm 21.0 E 4 5 1015.0 - 0.0 - - 10 - - - -
04/09:30pm 22.0 E 4 - 1015.0 - 0.0 - - 10 - - - -
04/09:00pm 21.8 E 4 - 1014.9 - 0.0 - - 10 - - - -
04/08:35pm 23.0 E 4 - 1015.0 - 0.0 - - 10 - - - -
04/08:30pm 22.0 E 4 - 1015.0 - 0.0 - - 10 - - - -
04/08:19pm 23.0 E 4 - 1015.0 - 0.0 - - 5 - - - -
04/08:00pm 24.0 E 3 - 1015.0 - 0.0 - - 6 - - - -
04/07:30pm 25.0 ENE 5 - 1014.0 - 0.0 - - 10 - - - -
04/07:00pm 26.0 ENE 6 - 1014.0 - 0.0 - - 10 - - - -
04/06:30pm 26.0 ENE 6 - 1014.0 - 0.0 - - 10 - - - -
04/06:00pm 26.4 ENE 7 - 1013.1 - 0.0 - - 10 - - - -
04/05:30pm 27.0 ENE 8 - 1013.0 - 0.0 - - 10 - - - -
04/05:00pm 28.0 ENE 10 - 1012.0 - 0.0 - - 10 - - - -
04/04:30pm 29.0 NE 9 - 1012.0 - 0.0 - - 10 - - - -
04/04:00pm 30.0 ENE 10 - 1012.0 - 0.0 - - 10 - - - -
04/03:30pm 30.0 NE 9 - 1012.0 - 0.0 - - 10 - - - -
04/03:00pm 30.0 NE 11 - 1012.3 - 0.0 - - 10 - - - -
04/02:30pm 31.0 ENE 11 - 1012.0 - 0.0 - - 10 - - - -
04/02:00pm 31.0 ENE 11 - 1013.0 - 0.0 - - 10 - - - -
04/01:30pm 31.0 E 11 - 1013.0 - 0.0 - - 10 - - - -
04/01:00pm 31.0 ENE 12 - 1014.0 - 0.0 - - 10 - - - -
04/12:30pm 31.0 ENE 11 - 1014.0 - 0.0 - - 10 - - - -
04/12:00pm 30.0 E 12 - 1014.9 - 0.0 - - 10 - - - -
04/11:30am 30.0 E 12 - 1015.0 - 0.0 - - 10 - - - -
04/11:00am 30.0 E 11 - 1016.0 - 0.0 - - 10 - - - -
04/10:30am 29.0 E 13 25 1016.0 - 0.0 - - 10 - - - -
04/10:00am 29.0 E 12 - 1017.0 - 0.0 - - 10 - - - -
04/09:30am 28.0 ESE 12 23 1017.0 - 0.0 - - 10 - - - -
04/09:00am 27.8 E 10 - 1017.1 - 0.0 - - 10 - - - -
04/08:30am 27.0 ESE 8 - 1017.0 - 0.0 - - 10 - - - -
04/08:00am 26.0 ESE 10 - 1017.0 - 0.0 - - 10 - - - -
04/07:30am 25.0 ESE 8 - 1017.0 - 0.0 - - 9 - - - -
04/07:00am 24.0 ESE 6 - 1017.0 - 0.0 - - 10 - - - -
04/06:30am 22.0 ESE 5 - 1016.0 - 0.0 - - 10 - - - -
04/06:00am 20.3 SSE 4 - 1015.6 - 0.0 - - 10 - - - -
04/05:30am 20.0 S 4 - 1015.0 - 0.0 - - 10 - - - -
04/05:00am 20.0 S 3 - 1015.0 - 0.0 - - 10 - - - -
04/04:30am 21.0 S 5 - 1015.0 - 0.0 - - 10 - - - -
04/04:00am 21.0 SSE 4 - 1015.0 - 0.0 - - 8 - - - -
04/03:30am 21.0 SE 4 - 1014.0 - 0.0 - - 10 - - - -
04/03:00am 21.6 S 5 - 1014.4 - 0.0 - - 6 - - - -
04/02:30am 22.0 S 4 - 1014.0 - 0.0 - - 10 - - - -
04/02:00am 22.0 S 5 - 1014.0 - 0.0 - - 10 - - - -
04/01:30am 22.0 SSW 5 - 1015.0 - 0.0 - - 10 - - - -
04/01:00am 22.0 SSW 6 - 1015.0 - 0.0 - - 9 - - - -
04/12:30am 22.0 S 5 - 1015.0 - 0.0 - - 9 - - - -
04/12:00am 22.2 SSW 5 - 1015.2 - 0.0 - - 9 - - - -
 
Date/Time
WST
Temp

°C
Wind Pressure Rain
since 9am
mm
Weather Cloud Vis
km
Sea
Height
m
Swell
Dir
 
Speed
knots
Gust
knots
hPa Trend Height
m
Period
s
Dir
03/11:30pm 22.0 SW 4 - 1015.0 - 0.0 - - 10 - - - -
03/11:00pm 22.0 SW 3 - 1015.0 - 0.0 - - 10 - - - -
03/10:30pm 23.0 SW 4 - 1015.0 - 0.0 - - 9 - - - -
03/10:00pm 22.0 SW 4 - 1016.0 - 0.0 - - 7 - - - -
03/09:30pm 22.0 CALM 0 - 1016.0 - 0.0 - - 10 - - - -
03/09:00pm 21.5 CALM 0 - 1015.7 - 0.0 - - 10 - - - -
03/08:30pm 22.0 CALM 0 - 1015.0 - 0.0 - - 10 - - - -
03/08:00pm 22.0 CALM 0 - 1015.0 - 0.0 - - 10 - - - -
03/07:30pm 23.0 CALM 0 - 1015.0 - 0.0 - - 9 - - - -
03/07:00pm 24.0 CALM 0 - 1015.0 - 0.0 - - 10 - - - -
03/06:30pm 24.0 NNE 4 - 1015.0 - 0.0 - - 9 - - - -
03/06:00pm 24.7 NNE 6 - 1014.2 - 0.0 - - 10 - - - -
03/05:30pm 25.0 N 7 - 1014.0 - 0.0 - - 8 - - - -
03/05:00pm 26.0 N 7 - 1014.0 - 0.0 - - 10 - - - -
03/04:30pm 27.0 N 7 - 1014.0 - 0.0 - - 10 - - - -
03/04:00pm 27.0 N 9 - 1013.0 - 0.0 - - 10 - - - -
03/03:30pm 28.0 N 11 - 1013.0 - 0.0 - - 10 - - - -
03/03:00pm 28.5 N 10 - 1013.0 - 0.0 - - 10 - - - -
03/02:30pm 29.0 N 11 - 1013.0 - 0.0 - - 10 - - - -
03/02:00pm 30.0 N 12 - 1013.0 - 0.0 - - 10 - - - -
03/01:30pm 30.0 N 10 - 1013.0 - 0.0 - - 10 - - - -
03/01:00pm 30.0 N 10 - 1014.0 - 0.0 - - 10 - - - -
03/12:30pm 30.0 NE 7 - 1014.0 - 0.0 - - 10 - - - -
03/12:00pm 30.6 NNE 11 - 1014.7 - 0.0 - - 10 - - - -
03/11:30am 30.0 E 7 - 1015.0 - 0.0 - - 10 - - - -
03/11:00am 29.0 ENE 6 - 1016.0 - 0.0 - - 10 - - - -
03/10:30am 30.0 E 7 - 1016.0 - 0.0 - - 10 - - - -
03/10:00am 30.0 E 7 - 1016.0 - 0.0 - - 10 - - - -
03/09:30am 30.0 NNE 3 - 1016.0 - 0.0 - - 10 - - - -
03/09:00am 28.5 NE 4 - 1016.4 - 0.0 - - 10 - - - -
03/08:30am 28.0 ENE 4 - 1016.0 - 0.0 - - 10 - - - -
03/08:00am 25.0 E 4 - 1016.0 - 0.0 - - 10 - - - -
03/07:30am 23.0 E 4 - 1016.0 - 0.0 - - 10 - - - -
03/07:00am 21.0 ESE 2 - 1015.0 - 0.0 - - 9 - - - -
03/06:30am 19.0 ESE 4 - 1015.0 - 0.0 - - 10 - - - -
03/06:00am 18.5 ESE 4 - 1014.8 - 0.0 - - 8 - - - -
03/05:30am 18.0 ESE 3 - 1015.0 - 0.0 - - 10 - - - -
03/05:00am 18.0 ESE 3 - 1014.0 - 0.0 - - 10 - - - -
03/04:30am 18.0 SE 3 - 1014.0 - 0.0 - - 10 - - - -
03/04:00am 19.0 S 2 - 1014.0 - 0.0 - - 7 - - - -
03/03:30am 19.0 S 3 - 1014.0 - 0.0 - - 9 - - - -
03/03:00am 19.5 S 4 - 1014.0 - 0.0 - - 10 - - - -
03/02:47am 20.0 S 4 - 1014.0 - 0.0 - - 7 - - - -
03/02:33am 20.0 S 3 - 1014.0 - 0.0 - - 5 - - - -
03/02:30am 20.0 S 3 - 1014.0 - 0.0 - - 7 - - - -
03/02:00am 20.0 S 4 - 1014.0 - 0.0 - - 9 - - - -
03/01:30am 20.0 S 3 - 1015.0 - 0.0 - - 8 - - - -
03/01:00am 20.0 S 4 - 1015.0 - 0.0 - - 9 - - - -
03/12:30am 21.0 S 3 - 1015.0 - 0.0 - - 8 - - - -
03/12:00am 20.5 E 1 - 1015.5 - 0.0 - - 10 - - - -
 
Date/Time
WST
Temp

°C
Wind Pressure Rain
since 9am
mm
Weather Cloud Vis
km
Sea
Height
m
Swell
Dir
 
Speed
knots
Gust
knots
hPa Trend Height
m
Period
s
Dir
02/11:30pm 21.0 CALM 0 - 1016.0 - 0.0 - - 10 - - - -
02/11:00pm 21.0 CALM 0 - 1016.0 - 0.0 - - 10 - - - -
02/10:30pm 21.0 CALM 0 - 1016.0 - 0.0 - - 10 - - - -
02/10:00pm 22.0 CALM 0 - 1016.0 - 0.0 - - 10 - - - -
02/09:30pm 21.0 E 3 - 1016.0 - 0.0 - - 9 - - - -
02/09:00pm 21.3 E 3 - 1016.0 - 0.0 - - 10 - - - -
02/08:30pm 22.0 E 3 - 1016.0 - 0.0 - - 10 - - - -
02/08:00pm 22.0 NE 2 - 1015.0 - 0.0 - - 10 - - - -
02/07:30pm 23.0 CALM 0 - 1015.0 - 0.0 - - 10 - - - -
02/07:00pm 24.0 N 2 - 1015.0 - 0.0 - - 10 - - - -
02/06:30pm 24.0 N 5 - 1014.0 - 0.0 - - 10 - - - -
02/06:00pm 24.5 N 6 - 1014.1 - 0.0 - - 6 - - - -
02/05:30pm 25.0 N 6 - 1014.0 - 0.0 - - 10 - - - -
02/05:00pm 26.0 N 8 - 1013.0 - 0.0 - - 10 - - - -
02/04:30pm 27.0 N 9 - 1013.0 - 0.0 - - 10 - - - -
02/04:00pm 28.0 NNE 10 - 1013.0 - 0.0 - - 10 - - - -
02/03:30pm 29.0 NNE 10 - 1013.0 - 0.0 - - 10 - - - -
02/03:00pm 29.2 N 10 - 1012.7 - 0.0 - - 10 - - - -
02/02:30pm 31.0 NNE 11 - 1013.0 - 0.0 - - 10 - - - -
02/02:00pm 31.0 N 9 - 1013.0 - 0.0 - - 10 - - - -
02/01:30pm 32.0 N 10 - 1013.0 - 0.0 - - 10 - - - -
02/01:00pm 31.0 N 8 - 1014.0 - 0.0 - - 10 - - - -
02/12:30pm 33.0 E 8 - 1014.0 - 0.0 - - 10 - - - -
02/12:00pm 32.8 E 8 - 1014.3 - 0.0 - - 10 - - - -
02/11:30am 32.0 ENE 8 - 1015.0 - 0.0 - - 10 - - - -
02/11:00am 32.0 E 10 - 1015.0 - 0.0 - - 10 - - - -
02/10:30am 32.0 ESE 6 - 1016.0 - 0.0 - - 10 - - - -
02/10:00am 31.0 WNW 3 - 1016.0 - 0.0 - - 9 - - - -
02/09:30am 30.0 SSW 4 - 1016.0 - 0.0 - - 10 - - - -
02/09:00am 28.5 SSW 4 - 1016.1 - 0.0 - - 8 - - - -
02/08:30am 28.0 S 4 - 1016.0 - 0.0 - - 10 - - - -
02/08:00am 26.0 SW 3 - 1016.0 - 0.0 - - 10 - - - -
02/07:30am 25.0 SSW 5 - 1015.0 - 0.0 - - 10 - - - -
02/07:00am 24.0 SW 6 - 1015.0 - 0.0 - - 10 - - - -
02/06:30am 22.0 SW 5 - 1015.0 - 0.0 - - 10 - - - -
02/06:00am 20.9 SW 5 - 1014.7 - 0.0 - - 7 - - - -
02/05:30am 19.0 SW 4 - 1014.0 - 0.0 - - 10 - - - -
02/05:00am 19.0 S 3 - 1014.0 - 0.0 - - 9 - - - -
02/04:30am 19.0 SSE 3 - 1014.0 - 0.0 - - 8 - - - -
02/04:00am 20.0 CALM 0 - 1014.0 - 0.0 - - 10 - - - -
02/03:30am 20.0 SW 3 - 1014.0 - 0.0 - - 10 - - - -
02/03:00am 21.1 SW 4 - 1013.9 - 0.0 - - 9 - - - -
02/02:30am 20.0 SW 4 - 1014.0 - 0.0 - - 10 - - - -
02/02:00am 21.0 CALM 0 - 1014.0 - 0.0 - - 9 - - - -
02/01:30am 21.0 SSW 4 - 1015.0 - 0.0 - - 10 - - - -
02/01:00am 21.0 SW 1 - 1015.0 - 0.0 - - 10 - - - -
02/12:30am 21.0 SW 3 - 1015.0 - 0.0 - - 10 - - - -
02/12:00am 21.3 SW 1 - 1015.0 - 0.0 - - 10 - - - -
 
Date/Time
WST
Temp

°C
Wind Pressure Rain
since 9am
mm
Weather Cloud Vis
km
Sea
Height
m
Swell
Dir
 
Speed
knots
Gust
knots
hPa Trend Height
m
Period
s
Dir
01/11:30pm 21.0 CALM 0 - 1015.0 - 0.0 - - 8 - - - -
01/11:00pm 21.0 CALM 0 - 1015.0 - 0.0 - - 10 - - - -
01/10:30pm 22.0 CALM 0 - 1015.0 - 0.0 - - 8 - - - -

Other Formats:

Comma delimited format used in spreadsheet applications
http://www.bom.gov.au/fwo/IDW60701/IDW60701.95101.axf

JavaScript Object Notation format (JSON) in row-major order
http://www.bom.gov.au/fwo/IDW60701/IDW60701.95101.json